FloripaSat 1
1 44885U 19093G   25195.73532490  .00004125  00000-0  34684-3 0  9996
2 44885  97.8185 283.4138 0012818  88.5650 271.7041 14.98777727302017
RS-44
1 44909U 19096E   25195.50067395  .00000016  00000-0  20769-4 0  9993
2 44909  82.5196 204.0767 0216755 213.6762 145.0409 12.79742041259150
UPMSat 2
1 46276U 20061E   25195.46601498  .00063040  00000-0  45778-3 0  9991
2 46276  97.2409 271.1317 0001975 148.9110 211.2271 15.73200037270942
SALSAT
1 46495U 20068K   25195.50485703  .00005170  00000-0  22191-3 0  9999
2 46495  97.8623 175.1596 0012496  48.2305 311.9996 15.23128119263847
CubeSX-Sirius-HSE
1 47951U 21022V   25157.62701764  .07883385  25648-5  89537-3 0  9993
2 47951  97.4004  72.1904 0010275 223.9924 136.0557 16.36879307233400
CubeSX-HSE
1 47952U 21022W   25157.69972699  .06655353  25454-5  93288-3 0  9992
2 47952  97.3980  72.5414 0010307 219.3637 140.6911 16.34906352233436
GRBAlpha
1 47959U 21022AD  25160.45426279  .07940347  25506-5  90589-3 0  9995
2 47959  97.3899  75.6235 0011032 227.2558 132.7812 16.36806138232695
TUBIN
1 48900U 21059X   25195.70484969  .00039652  00000-0  43508-3 0  9995
2 48900  97.6765   7.8612 0004089 109.7327 250.4372 15.63126233225528
LEDSAT
1 49069U 21073D   25195.71261842  .00061145  00000-0  61830-3 0  9992
2 49069  97.3871 278.8307 0007141 295.6326  64.4196 15.65093613216925
CUTE
1 49263U 21088D   25195.72795387  .00030974  00000-0  58736-3 0  9998
2 49263  97.4498 273.0294 0009124 113.3750 246.8461 15.48230732209861
TeikyoSat 4
1 49396U 21102B   25195.59340740  .00001534  00000-0  10417-3 0  9990
2 49396  97.4082 232.7564 0012944  20.9624 339.2132 15.07758758201824
Z-Sat
1 49399U 21102E   25195.70123262  .00002601  00000-0  14371-3 0  9993
2 49399  97.3776 236.1757 0017383 347.8445  12.2365 15.14647883202294
KOSEN 1
1 49402U 21102H   25195.08965580  .00004695  00000-0  21641-3 0  9999
2 49402  97.3680 239.2611 0014424 323.1844  36.8400 15.20659011202531
HO-113
1 50466U 21131B   25195.76090154  .00000340  00000-0  12000-3 0  9996
2 50466  98.5108 284.9425 0004836  45.1312 315.0268 14.40846508186511
Foresail-1
1 52766U 22057AL  25176.64799660  .13857605  27391-5  25307-3 0  9992
2 52766  97.5832 331.2310 0012137 233.7199 258.4922 16.46795272172486
SNUGLITE 2
1 52899U 22065F   25195.63838720  .00000690  00000-0  14300-3 0  9993
2 52899  98.1731 337.2794 0007706  13.7309 346.4101 14.63276509161619
UmKA 1 (RS40S)
1 57172U 23091G   25195.73268653  .00003410  00000-0  18245-3 0  9990
2 57172  97.5555 250.9349 0013668 206.7791 153.2737 15.15658485112806
CubeBel-2 (EU11S)
1 57175U 23091K   25195.73403181  .00005566  00000-0  26256-3 0  9995
2 57175  97.5554 252.3014 0011322 212.4914 147.5625 15.19830398112899
VERONIKA
1 58261U 23174F   25195.70415117  .00207548  00000-0  10061-2 0  9993
2 58261  97.4070 284.2699 0006763 239.8642 120.1957 15.81901108 94212
ENSO
1 58470U 23185J   25195.71527728  .00043234  00000-0  55018-3 0  9992
2 58470  97.3712 272.0459 0004684 302.8309  57.2496 15.59231869 90507
EIRSAT-1
1 58472U 23185L   25195.73868254  .00120110  00000-0  79571-3 0  9997
2 58472  97.3640 274.6832 0004096 268.7134  91.3662 15.75156801 90688
SONATE-2
1 59112U 24043Q   25195.34251325  .00011224  00000-0  31508-3 0  9998
2 59112  97.5181 327.2487 0010310 356.9964   3.1217 15.36675712 75673
MO-122
1 60209U 24125G   25195.54371458  .00012952  00000-0  35652-3 0  9993
2 60209  97.2759  46.7882 0018481  17.4717 342.7160 15.37118599 57321
GRBBeta
1 60237U 24128C   25195.60261958  .00002808  00000-0  21754-3 0  9994
2 60237  61.9927 317.4209 0054339  65.0838 295.5886 15.02878656 55465
Curium One
1 60242U 24128H   25195.57936714  .00004672  00000-0  32729-3 0  9990
2 60242  61.9826 315.2664 0054291  61.3470 299.3066 15.05530264 55508
ROBUSTA-3A
1 60243U 24128J   25195.59301579  .00004844  00000-0  34346-3 0  9996
2 60243  61.9901 316.1652 0053266  59.0270 301.6040 15.05055102 55493
CatSat
1 60246U 24125J   25195.53550579  .00006967  00000-0  22974-3 0  9998
2 60246  97.2563  45.5896 0040910 331.6709  28.2307 15.30934010 55336
HYPERVIEW-1G (RS66S)
1 61772U 24199AP  25195.72305622  .00014736  00000-0  41230-3 0  9991
2 61772  97.3483  64.5277 0014961  71.0286 289.2578 15.36643218 82353
AO-123
1 61781U 24199AY  25195.73392866  .00004679  00000-0  16947-3 0  9990
2 61781  97.3501  63.0343 0017450  75.3813 284.9360 15.28734605 82253
ZIMSAT 2
1 61783U 24199BA  25195.71142375  .00026686  00000-0  60855-3 0  9997
2 61783  97.3455  65.4180 0014432  68.7983 291.4805 15.42775003 85566
HADES-R (SO-124)
1 62690U 25009CK  25195.46528399  .00024180  00000-0  80508-3 0  9996
2 62690  97.4078 276.1827 0001214 344.7612  15.3593 15.31125520 27480
HYDRA-T
1 62692U 25009CM  25195.44438564  .00025871  00000-0  85290-3 0  9991
2 62692  97.4082 276.2100 0000930 330.6182  29.5007 15.31431550 27482
JINJUSat 1B
1 63210U 25052A   25195.46420045  .00007634  00000-0  34478-3 0  9992
2 63210  97.4371  89.1531 0004086 172.6295 187.5002 15.21245368 18551
NUSHSAT 1
1 63211U 25052B   25195.65044088  .00009110  00000-0  40718-3 0  9998
2 63211  97.4360  89.3472 0003921 176.6220 183.5043 15.21543570 18585
TEVEL2-4
1 63213U 25052D   25195.60540519  .00008050  00000-0  36367-3 0  9992
2 63213  97.4278  89.1250 0002564 186.5459 173.5743 15.21218661 18578
TEVEL2-5
1 63214U 25052E   25195.67225761  .00007996  00000-0  36148-3 0  9994
2 63214  97.4276  89.1888 0002568 186.5279 173.5924 15.21196210 18585
TEVEL2-6
1 63215U 25052F   25195.60954405  .00007850  00000-0  35539-3 0  9994
2 63215  97.4278  89.1216 0002563 188.4973 171.6220 15.21154117 18577
TEVEL2-1
1 63217U 25052H   25195.69149240  .00007594  00000-0  34617-3 0  9999
2 63217  97.4254  89.1260 0002214 207.7191 152.3926 15.20930101 18586
TEVEL2-2
1 63218U 25052J   25195.69176431  .00007685  00000-0  35023-3 0  9995
2 63218  97.4256  89.1268 0002232 209.1554 150.9558 15.20932773 18588
TEVEL2-3
1 63219U 25052K   25195.69202453  .00007654  00000-0  34893-3 0  9990
2 63219  97.4256  89.1260 0002220 208.8400 151.2713 15.20925948 18587
TEVEL2-8
1 63237U 25052AD  25195.25871809  .00007990  00000-0  37719-3 0  9992
2 63237  97.4319  88.5842 0006198 248.4820 111.5755 15.19690678 18504
TEVEL2-9
1 63238U 25052AE  25195.46004489  .00007613  00000-0  36026-3 0  9990
2 63238  97.4320  88.7766 0006290 247.8214 112.2354 15.19625664 18536
TEVEL2-7
1 63239U 25052AF  25195.46276949  .00007484  00000-0  35453-3 0  9992
2 63239  97.4319  88.7715 0006235 247.7560 112.3013 15.19592837 18539
HYDRA-W
1 63490U 25052BL  25195.21409208  .00017414  00000-0  70578-3 0  9991
2 63490  97.4266  89.0202 0009406 243.8980 116.1290 15.24673679 18539
HADES-ICM (SO-125)
1 63492U 25052BN  25195.63360752  .00017524  00000-0  72082-3 0  9993
2 63492  97.4277  89.3848 0009621 248.0596 111.9619 15.24172324 18596
